Location: Winthrop
(48.4780°N, 120.1850°W)
Time: 01:51:31
(UTC-08:00)

Tiros 1 - Visible Passes

Search period start: 31 January 2023 00:00
Search period end: 10 February 2023 00:00
Orbit: 628 x 662 km, 48.4° (Epoch: 30 January)

Date Brightness Start Highest point End Pass type
(mag) Time Alt. Az. Time Alt. Az. Time Alt. Az.
31 Jan 7.8 04:39:00 52° E 04:39:00 52° E 04:42:35 10° E visible
31 Jan 7.5 06:16:37 18° W 06:19:55 55° SSW 06:24:33 10° SE visible
01 Feb 10.3 03:25:40 11° E 03:25:40 11° E 03:25:48 10° E visible
01 Feb 7.0 05:03:17 79° S 05:03:17 79° S 05:08:00 10° ESE visible
01 Feb 8.2 06:40:54 10° W 06:45:07 34° SSW 06:49:23 10° SSE visible
02 Feb 9.7 03:49:59 18° E 03:49:59 18° E 03:51:16 10° E visible
02 Feb 7.3 05:27:37 46° WSW 05:28:37 58° SSW 05:33:16 10° ESE visible
03 Feb 8.9 04:14:21 29° ESE 04:14:21 29° ESE 04:16:41 10° ESE visible
03 Feb 7.9 05:51:58 26° WSW 05:53:50 36° SSW 05:58:10 10° SE visible
04 Feb 8.1 04:38:46 40° SE 04:38:46 40° SE 04:41:58 10° ESE visible
04 Feb 8.7 06:16:24 14° WSW 06:18:54 21° SW 06:22:25 10° S visible
05 Feb 8.0 05:03:15 36° S 05:03:15 36° S 05:06:55 10° SE visible
05 Feb 9.3 06:42:51 10° WSW 06:43:47 11° SW 06:44:43 10° SW visible
06 Feb 9.9 03:50:10 13° ESE 03:50:10 13° ESE 03:50:39 10° ESE visible
06 Feb 8.5 05:27:49 23° SW 05:27:49 23° SW 05:31:18 10° SSE visible
07 Feb 9.6 04:14:49 15° SE 04:14:49 15° SE 04:15:40 10° SE visible
07 Feb 9.2 05:52:28 12° SW 05:52:32 12° SW 05:54:10 10° SSW visible
08 Feb 9.5 04:39:34 13° SSE 04:39:34 13° SSE 04:40:08 10° SSE visible
